Weather reports worldwide

Advertisment
Capo Carbonara, Italy (16564): temperature & dewpoint: 14.06.2018 11:00:00 - 20.06.2018 11:00:00 (CEST)Capo Carbonara, Italy (16564): wind speed: 14.06.2018 11:00:00 - 20.06.2018 11:00:00 (CEST)Capo Carbonara, Italy (16564): wind direction: 14.06.2018 11:00:00 - 20.06.2018 11:00:00 (CEST)Capo Carbonara, Italy (16564): reduced air pressure: 14.06.2018 11:00:00 - 20.06.2018 11:00:00 (CEST)Capo Carbonara, Italy (16564): visibility: 14.06.2018 11:00:00 - 20.06.2018 11:00:00 (CEST)
Date & Time tt [°C] td [°C] ff [km/h] ff [kn] dd ppp [hPa] vv [km]
20.06.2018 11:00:00 24,2 17,2 5 3 SW 1017,7 25
20.06.2018 10:00:00 23,0 19,0 5 3 SSW - 10
20.06.2018 09:00:00 25,0 15,0 4 2 E - 10
20.06.2018 08:00:00 24,2 14,0 5 3 W 1017,1 20
20.06.2018 07:00:00 23,0 16,0 9 5 W - 10
20.06.2018 06:00:00 23,0 14,0 13 7 W - 10
20.06.2018 05:00:00 23,2 15,8 11 6 W 1016,7 18
20.06.2018 04:00:00 22,0 18,0 21 11 WSW - 10
20.06.2018 03:00:00 22,0 16,0 11 6 W - 10
20.06.2018 02:00:00 23,4 15,2 0 0 N 1017,0 18
20.06.2018 01:00:00 23,0 18,0 5 3 W - 10
20.06.2018 00:00:00 22,0 19,0 5 3 WSW - 10
19.06.2018 23:00:00 23,0 17,9 5 3 NNW 1017,1 20
19.06.2018 22:00:00 24,0 15,0 13 7 NNE - 10
19.06.2018 21:00:00 24,0 14,0 21 11 NNE - 10
19.06.2018 20:00:00 24,4 16,7 11 6 NNE 1016,6 20
19.06.2018 19:00:00 26,0 22,0 18 10 ENE - 10
19.06.2018 18:00:00 26,0 21,0 24 13 ENE - 10
19.06.2018 17:00:00 26,4 21,4 29 16 ENE 1015,9 20
19.06.2018 16:00:00 28,0 19,0 35 19 NE - 10
19.06.2018 15:00:00 28,0 19,0 31 17 NE - 10
19.06.2018 14:00:00 28,4 19,1 35 19 NE 1016,2 20
19.06.2018 13:00:00 28,0 19,0 37 20 NE - 10
19.06.2018 12:00:00 27,0 19,0 31 17 NE - 10
19.06.2018 11:00:00 27,6 15,6 41 22 NE 1015,8 25
19.06.2018 10:00:00 27,0 17,0 31 17 NE - 10
19.06.2018 09:00:00 26,0 17,0 24 13 NE - 10
19.06.2018 08:00:00 25,0 16,2 13 7 NNE 1015,3 18
19.06.2018 07:00:00 25,0 15,0 16 9 N - 10
19.06.2018 06:00:00 25,0 13,0 15 8 N - 10
19.06.2018 05:00:00 24,8 13,4 8 4 NNW 1014,7 10
19.06.2018 04:00:00 23,0 16,0 8 4 W - 10
19.06.2018 03:00:00 22,0 17,0 13 7 WSW - 10
19.06.2018 02:00:00 22,4 18,4 18 10 WSW 1015,0 18
19.06.2018 01:00:00 23,0 18,0 9 5 SW - 10
19.06.2018 00:00:00 22,0 19,0 5 3 WSW - 10
18.06.2018 23:00:00 23,6 16,2 11 6 NNE 1014,9 20
18.06.2018 22:00:00 24,0 17,0 11 6 NE - 10
18.06.2018 21:00:00 24,0 21,0 15 8 ENE - 10
18.06.2018 20:00:00 25,4 21,9 5 3 ENE 1013,6 18
18.06.2018 19:00:00 24,0 19,0 4 2 ESE - 10
18.06.2018 18:00:00 27,0 22,0 8 4 E - 10
18.06.2018 17:00:00 27,6 21,4 8 4 WSW 1013,6 20
18.06.2018 16:00:00 27,0 21,0 11 6 S - 10
18.06.2018 15:00:00 29,0 20,0 13 7 ESE - 10
18.06.2018 14:00:00 28,4 19,4 13 7 SSE 1013,8 20
18.06.2018 13:00:00 - - - - - - -
18.06.2018 12:00:00 26,0 18,0 16 9 WSW - 10
18.06.2018 11:00:00 24,2 18,6 15 8 SW 1014,0 20
18.06.2018 10:00:00 23,0 18,0 8 4 SSW - 10
18.06.2018 09:00:00 21,0 17,0 15 8 W - 10
18.06.2018 08:00:00 20,2 16,3 28 15 W 1014,0 20
18.06.2018 07:00:00 20,0 16,0 28 15 SW - 10
18.06.2018 06:00:00 20,0 16,0 21 11 W - 10
18.06.2018 05:00:00 20,0 16,4 31 17 W 1013,5 20
18.06.2018 04:00:00 24,0 20,0 52 28 W - 10
18.06.2018 03:00:00 20,0 18,0 44 24 W - 10
18.06.2018 02:00:00 20,0 16,8 37 20 W 1014,3 20
18.06.2018 01:00:00 21,0 17,0 39 21 W - 10
18.06.2018 00:00:00 21,0 17,0 29 16 W - 10
17.06.2018 23:00:00 21,4 18,0 37 20 W 1014,4 20
17.06.2018 22:00:00 22,0 19,0 35 19 W - 10
17.06.2018 21:00:00 24,0 18,0 28 15 W - 10
17.06.2018 20:00:00 24,2 20,1 21 11 WSW 1013,9 20
17.06.2018 19:00:00 26,0 18,0 13 7 SW - 10
17.06.2018 18:00:00 22,0 19,0 26 14 WSW - 10
17.06.2018 17:00:00 24,2 20,3 18 10 SW 1014,4 20
17.06.2018 16:00:00 25,0 21,0 22 12 SW - 10
17.06.2018 15:00:00 25,0 21,0 24 13 SSW - 10
17.06.2018 14:00:00 24,2 19,9 18 10 S 1014,5 20
17.06.2018 13:00:00 21,0 17,0 9 5 SW - 10
17.06.2018 12:00:00 23,0 19,0 9 5 SW - 10
17.06.2018 11:00:00 22,6 18,6 22 12 WSW 1013,9 20
17.06.2018 10:00:00 22,0 18,0 13 7 W - 10
17.06.2018 09:00:00 20,0 16,0 15 8 W - 10
17.06.2018 08:00:00 20,0 15,4 8 4 W 1012,7 20
17.06.2018 07:00:00 20,0 13,0 5 3 W - 10
17.06.2018 06:00:00 20,0 13,0 0 0 N - 10
17.06.2018 05:00:00 20,2 14,5 9 5 W 1013,4 20
17.06.2018 04:00:00 20,0 16,0 16 9 W - 10
17.06.2018 03:00:00 20,0 16,0 13 7 W - 10
17.06.2018 02:00:00 20,0 16,0 13 7 WSW 1013,6 20
17.06.2018 01:00:00 20,0 17,0 21 11 W - 10
17.06.2018 00:00:00 21,0 16,0 0 0 N - 10
16.06.2018 23:00:00 22,0 17,4 5 3 SSW 1012,9 20
16.06.2018 22:00:00 22,0 16,0 5 3 E - 10
16.06.2018 21:00:00 22,0 16,0 9 5 NE - 10
16.06.2018 20:00:00 23,0 19,8 13 7 NE 1011,7 20
16.06.2018 19:00:00 23,0 20,0 22 12 NE - 10
16.06.2018 18:00:00 25,0 20,0 9 5 ENE - 10
16.06.2018 17:00:00 24,0 19,7 9 5 ESE 1011,6 20
16.06.2018 16:00:00 25,0 20,0 11 6 SSE - 10
16.06.2018 15:00:00 25,0 21,0 15 8 S - 10
16.06.2018 14:00:00 24,0 19,7 22 12 SSW 1012,6 20
16.06.2018 13:00:00 24,0 20,0 13 7 S - 10
16.06.2018 12:00:00 24,0 18,0 8 4 SW - 10
16.06.2018 11:00:00 22,8 18,1 15 8 W 1011,7 20
16.06.2018 10:00:00 22,0 18,0 13 7 N - 10
16.06.2018 09:00:00 20,0 16,0 8 4 W - 10
16.06.2018 08:00:00 21,8 14,9 11 6 WNW 1011,3 20
16.06.2018 07:00:00 19,0 15,0 8 4 WSW - 10
16.06.2018 06:00:00 19,0 15,0 13 7 W - 10
16.06.2018 05:00:00 19,2 15,3 13 7 WNW 1011,0 10
16.06.2018 04:00:00 19,0 16,0 21 11 W - 10
16.06.2018 03:00:00 19,0 15,0 16 9 W - 10
16.06.2018 02:00:00 19,2 15,3 18 10 W 1011,3 18
16.06.2018 01:00:00 19,0 16,0 22 12 WSW - 10
16.06.2018 00:00:00 20,0 16,0 21 11 WSW - 10
15.06.2018 23:00:00 20,8 16,6 5 3 N 1011,0 10
15.06.2018 22:00:00 21,0 17,0 24 13 W - 10
15.06.2018 21:00:00 21,0 18,0 9 5 NW - 10
15.06.2018 20:00:00 22,6 16,4 13 7 SSW 1010,3 18
15.06.2018 19:00:00 24,0 19,0 9 5 E - 10
15.06.2018 18:00:00 24,0 19,0 11 6 ENE - 10
15.06.2018 17:00:00 21,0 17,0 22 12 NNE 1010,4 18
15.06.2018 16:00:00 21,0 17,0 13 7 NNW - 10
15.06.2018 15:00:00 20,0 16,0 15 8 SW - 10
15.06.2018 14:00:00 21,0 17,6 11 6 SSW 1010,0 10
15.06.2018 13:00:00 21,0 17,0 29 16 W - 10
15.06.2018 12:00:00 25,0 19,0 16 9 SW - 10
15.06.2018 11:00:00 24,0 18,7 11 6 WSW 1009,7 20
15.06.2018 10:00:00 22,0 18,0 13 7 WSW - 10
15.06.2018 09:00:00 20,0 16,0 8 4 W - 10
15.06.2018 08:00:00 20,0 16,3 11 6 W 1008,8 20
15.06.2018 07:00:00 21,0 16,0 11 6 NE - 10
15.06.2018 06:00:00 19,0 15,0 21 11 W - 10
15.06.2018 05:00:00 19,2 15,5 13 7 W 1008,5 20
15.06.2018 04:00:00 20,0 15,0 21 11 W - 10
15.06.2018 03:00:00 20,0 16,0 15 8 W - 10
15.06.2018 02:00:00 19,8 16,3 21 11 W 1009,2 20
15.06.2018 01:00:00 20,0 16,0 31 17 W - 10
15.06.2018 00:00:00 20,0 17,0 29 16 W - 10
14.06.2018 23:00:00 20,2 17,0 29 16 W 1009,1 20
14.06.2018 22:00:00 21,0 17,0 31 17 W - 10
14.06.2018 21:00:00 21,0 17,0 46 25 W - 10
14.06.2018 20:00:00 22,0 17,2 35 19 W 1007,8 20
14.06.2018 19:00:00 23,0 18,0 9 5 W - 10
14.06.2018 18:00:00 23,0 18,0 29 16 WSW - 10
14.06.2018 17:00:00 21,4 17,6 8 4 SSE 1007,7 20
14.06.2018 16:00:00 21,0 18,0 16 9 ENE - 10
14.06.2018 15:00:00 22,0 18,0 13 7 E - 10
14.06.2018 14:00:00 22,0 17,6 15 8 SE 1007,2 20
14.06.2018 13:00:00 23,0 17,0 26 14 NE - 10
14.06.2018 12:00:00 22,0 16,0 46 25 W - 10
14.06.2018 11:00:00 21,0 17,0 39 21 WSW 1006,5 20

tt = temperature
td = dewpoint
ff = wind speed
dd = wind direction
ppp = reduced air pressure
vv = visibility

Next stations